Regional Weather Roundup
Issued by NWS

Home | Current Version | Previous Version | Text Only | Print | Product List | Glossary Off
Versions: 1 2 3 4 5 6 7 8 9 10 11 12 13 14 15 16 17 18 19 20 21 22 23 24 25 26 27 28 29 30 31 32 33 34 35 36 37 38 39 40 41 42 43 44 45 46 47 48 49 50

000
ASUS43 KLOT 272100
RWRIL

ILLINOIS REGIONAL WEATHER ROUNDUP
NATIONAL WEATHER SERVICE CHICAGO/ROMEOVILLE IL
300 PM CST THU NOV 27 2014

NOTE: "FAIR" INDICATES FEW OR NO CLOUDS BELOW 12,000 FEET WITH NO
SIGNIFICANT WEATHER AND/OR OBSTRUCTIONS TO VISIBILITY.

* THESE STATIONS ARE NOT UNDER NWS QUALITY CONTROL. THEY ALSO MAY NOT
  REPORT WEATHER SUCH AS PRECIPITATION OR FOG.

ILZ001-002-007-009-015-016-024-272200-
NORTHWEST ILLINOIS

CITY           SKY/WX    TMP DP  RH WIND       PRES   REMARKS
MOLINE         SUNNY     20   4  50 NW15      30.44R WCI   6
STERLING*      CLOUDY    25  14  63 W13       30.40R WCI  13
$$

ILZ003-004-008-010-011-017-018-272200-
NORTH CENTRAL ILLINOIS

CITY           SKY/WX    TMP DP  RH WIND       PRES   REMARKS
ROCKFORD       FLURRIES  22  11  62 NW12      30.40R WCI  10
$$

ILZ005-006-012>014-019>023-272200-
NORTHEAST ILLINOIS

CITY           SKY/WX    TMP DP  RH WIND       PRES   REMARKS
CHICAGO-OHARE  PTSUNNY   23  14  68 NW13      30.35R WCI  11
CHICAGO-MIDWAY PTSUNNY   26  15  63 NW13      30.36R WCI  15
AURORA         CLOUDY    25  16  68 W14       30.37R WCI  13
WAUKEGAN       CLOUDY    21  12  68 W12       30.35R WCI   9
DUPAGE AIRPORT FLURRIES  24  15  68 NW9       30.35R WCI  14
WHEELING       FLURRIES  22  13  68 NW10      30.38R WCI  11
NORTHERLY ISL    N/A     25  15  66 W15         N/A  WCI  13
$$

LMZ740>746-272200-
SOUTHERN LAKE MICHIGAN

STATION/POSITION SKY/WX   TEMP    WIND        PRES    VSBY  WAVE
                          AIR SEA DIR/SP/G                  HT/PER
                          (F)     (DEG/KT/KT) (MB)    (MI)  (FT/S)
SOUTHERN BUOY              27 42  320/ 19/ 23 1026.6R         7/ 7
WAUKEGAN HARBOR            22     310/  8/ 14   N/A
HARRISON CRIB              24     300/ 15/ 19   N/A
BURNHAM HARBOR             25     260/ 11/ 15   N/A
CALUMET HARBOR             25     290/  8/ 13 1026.6R
MICHIGAN CITY              27     260/ 21/ 24   N/A
$$

ILZ025>027-034>036-040-047-049-050-058-095>099-272200-
WEST-CENTRAL ILLINOIS

CITY           SKY/WX    TMP DP  RH WIND       PRES   REMARKS
QUINCY         PTSUNNY   24  15  68 W12       30.46S WCI  13
$$

ILZ028>032-037-038-041>044-048-051>054-059>061-272200-
CENTRAL ILLINOIS

CITY           SKY/WX    TMP DP  RH WIND       PRES   REMARKS
DECATUR        CLOUDY    24  18  77 W12G22    30.43R WCI  13
PEORIA         PTSUNNY   24  13  62 W10       30.43R WCI  14
SPRINGFIELD    CLOUDY    25  15  66 W14       30.45S WCI  13
TAYLORVILLE    NOT AVBL
$$

ILZ033-039-045-046-055>057-062-063-272200-
EAST-CENTRAL ILLINOIS

CITY           SKY/WX    TMP DP  RH WIND       PRES   REMARKS
CHAMPAIGN      LGT SNOW  28  22  78 W18       30.39R WCI  15
MATTOON        CLOUDY    27  21  78 W17       30.40R WCI  14
$$

ILZ079-100>102-272200-
SOUTHWEST ILLINOIS

CITY           SKY/WX    TMP DP  RH WIND       PRES   REMARKS
CAHOKIA*       SUNNY     34  22  61 NW12      30.46S WCI  25
$$

ILZ064>066-069>071-074>076-080>082-084>086-088>090-092>094-272200-
SOUTH-CENTRAL ILLINOIS

CITY           SKY/WX    TMP DP  RH WIND       PRES   REMARKS
CARBONDALE     CLOUDY    33  25  72 NW7       30.46S WCI  27
MARION         PTSUNNY   34  25  69 NW12      30.47S WCI  25
MT. VERNON     CLOUDY    32  21  64 CALM      30.45F
$$

ILZ067-068-072-073-078-083-087-091-272200-
SOUTHEAST ILLINOIS

CITY           SKY/WX    TMP DP  RH WIND       PRES   REMARKS
LAWRENCEVILLE  CLOUDY    30  22  72 W15       30.43R WCI  19
$$

ABBREVIATIONS USED IN REMARKS
   TC - TEMPERATURE IN CELSIUS
  WCI - WIND CHILL INDEX
   HX - HEAT INDEX
  VSB - VISIBILITY
$$




USA.gov is the U.S. government's official web portal to all federal, state and local government web resources and services.